Probability
12 12 10 7 5 5 7 8 10 11 11 10 10 10 9 7 6 5 5 4 4 2 1 2 3 3 2 2 1 1 1 1 1 1 1 0 0 0 0 0 1 1 1
12 11 10 10 8 7 8 11 14 13 12 11 10 9 8 7 6 5 4 5 4 3 1 2 3 3 3 3 2 2 2 3 2 2 2 1 0 0 0 0 1 2 2
12 11 11 13 14 13 13 15 16 15 13 11 10 9 8 6 6 6 5 5 5 3 2 2 3 3 3 5 5 5 5 4 3 3 3 2 1 1 0 1 1 2 2
13 12 13 16 19 20 19 17 16 15 13 11 10 10 9 7 6 7 6 5 4 2 1 1 2 2 4 7 9 9 7 6 5 5 5 4 3 2 2 2 1 1 1
17 17 17 19 21 22 22 19 16 15 13 12 11 11 10 8 7 7 6 4 3 2 1 2 2 2 4 7 9 10 9 8 7 7 8 7 6 6 6 5 4 2 1
24 24 23 23 23 22 21 18 15 13 12 12 12 11 10 9 6 5 5 5 5 4 4 5 5 5 5 6 6 6 7 7 6 7 8 8 9 10 10 9 7 5 4
26 27 27 26 25 23 20 17 15 13 12 12 11 10 9 8 5 3 3 6 7 6 6 8 8 8 7 7 5 4 4 4 4 6 7 7 8 10 10 9 7 6 6
23 24 26 26 24 23 21 19 17 16 15 14 12 12 11 8 4 2 2 5 6 6 7 8 9 8 8 7 6 5 4 3 3 4 5 5 5 6 7 6 5 5 4
19 21 22 22 20 20 21 20 20 18 18 17 16 16 14 11 7 2 2 4 5 6 7 9 9 7 6 4 4 5 5 4 3 2 2 1 1 2 4 4 4 4 4
15 17 18 18 17 17 17 17 17 17 16 16 16 16 16 15 10 4 3 5 7 7 8 9 9 7 4 3 3 4 6 6 4 3 1 1 1 2 2 4 5 4 4
11 13 15 16 15 15 14 13 14 14 13 13 13 13 14 14 10 4 2 5 7 7 8 8 8 6 3 1 2 3 5 5 5 4 3 3 4 4 3 4 6 6 5
9 10 12 14 14 14 14 12 13 14 14 13 11 10 10 10 7 3 1 2 4 5 6 6 5 4 3 1 1 1 2 3 4 4 4 4 5 6 6 6 7 8 7
8 9 10 11 12 12 12 11 12 14 16 15 13 11 11 9 6 2 1 0 1 2 3 3 3 3 3 2 1 1 1 2 3 4 4 4 5 8 8 8 8 8 7
6 7 8 10 12 12 11 10 11 12 13 14 14 13 13 11 7 4 2 1 1 1 1 2 3 3 3 3 3 2 3 3 3 4 4 5 6 8 9 8 7 6 6
5 5 7 10 11 11 10 9 8 8 9 11 12 12 12 11 8 5 3 2 2 2 2 3 3 3 3 3 4 4 4 4 4 4 4 4 4 6 7 7 5 5 6
4 5 8 9 10 10 9 8 7 6 5 6 6 6 7 7 6 2 1 1 2 2 2 2 2 2 3 4 5 6 6 6 5 4 3 3 3 3 4 4 4 5 6
4 4 7 9 10 10 9 7 6 6 4 3 3 2 2 3 2 0 0 0 1 1 1 1 1 1 2 4 6 6 6 6 6 5 4 4 3 3 3 3 3 4 5
3 3 5 9 11 10 9 7 6 6 5 4 3 1 1 1 0 0 0 0 0 0 0 0 0 0 2 4 6 6 6 6 6 6 6 5 4 3 3 2 1 1 2
2 2 3 7 9 10 9 7 6 6 6 5 4 2 1 0 0 0 0 0 0 0 0 0 0 0 1 4 5 6 6 6 6 6 6 6 5 4 3 2 0 0 1
1 0 1 3 5 7 7 5 4 4 4 4 3 3 2 0 0 0 0 0 0 0 0 0 1 1 2 4 4 5 6 6 6 6 6 6 6 6 5 3 1 0 0
0 0 0 0 2 3 3 3 3 3 3 3 4 3 1 0 0 0 0 0 0 0 0 0 1 2 3 4 4 4 5 5 6 6 6 6 6 6 5 3 1 0 0
0 0 0 0 0 0 0 1 2 3 3 4 4 3 1 0 0 0 0 0 0 0 0 0 1 2 3 4 4 4 4 4 5 6 6 6 5 4 4 3 2 1 0
0 0 0 0 0 0 0 1 1 2 3 3 3 3 2 1 1 2 1 0 1 1 1 1 0 1 2 3 3 4 3 4 5 6 6 5 4 3 3 3 3 2 1
0 0 0 0 1 1 1 2 1 1 1 1 1 2 2 2 2 3 2 1 1 2 2 2 1 1 1 2 3 3 3 3 5 6 6 5 4 4 4 3 3 2 2
0 0 0 0 1 2 3 3 2 0 0 0 0 1 1 1 2 2 2 1 1 1 1 2 3 2 2 3 4 3 2 2 3 4 5 5 5 5 5 4 2 1 1
0 0 0 0 1 3 3 3 1 0 0 0 0 0 0 0 1 1 1 0 0 0 1 2 3 3 3 3 3 2 1 0 1 2 4 6 6 6 6 4 1 0 0
Wind_Speed
6 6 5 5 5 5 5 5 4 4 4 4 4 3 3 3 3 3 3 3 3 3 3 3 4 3 3 3 3 3 4 4 4 3 2 2 3 3 2 3 3 4 3
6 6 5 5 5 4 4 4 4 4 4 4 4 4 3 3 3 3 3 3 4 4 4 4 4 3 4 3 3 4 4 4 4 5 3 2 3 3 3 3 2 2 3
6 6 5 5 5 5 5 4 4 4 4 3 4 4 4 3 3 3 3 3 4 4 4 4 4 4 4 4 4 4 4 4 4 4 3 2 2 2 2 1 1 1 2
6 6 5 5 5 5 4 4 4 4 4 4 4 4 4 4 4 4 4 3 3 4 4 4 4 5 5 5 4 5 4 4 4 4 3 2 2 2 2 2 1 1 2
5 6 6 4 4 4 4 4 4 4 4 4 4 4 3 4 4 4 4 4 4 4 4 4 5 5 5 5 4 5 5 4 4 4 3 2 3 2 3 2 3 2 2
6 6 5 4 4 4 4 4 4 4 3 4 4 4 4 4 4 5 4 4 4 5 5 4 4 5 5 6 7 7 7 6 6 5 4 5 5 4 3 3 3 2 2
5 5 4 5 4 4 3 3 4 4 3 4 4 4 4 5 5 5 6 4 4 4 5 4 4 4 4 4 4 5 7 8 8 6 6 6 5 5 5 4 4 4 4
5 4 4 4 4 4 4 4 4 3 4 4 4 5 5 5 5 6 6 4 4 4 4 5 4 4 4 3 3 3 4 4 6 6 6 6 5 4 5 5 5 3 2
3 3 3 3 3 4 4 4 4 3 4 4 4 5 5 5 5 5 5 3 3 4 4 4 5 5 5 4 4 4 4 3 3 4 5 5 5 5 5 3 4 4 3
3 2 2 3 3 3 4 3 2 2 3 3 3 3 5 5 5 5 5 3 4 4 3 4 6 6 5 4 4 5 5 4 3 2 2 3 3 4 6 5 5 5 3
1 2 1 2 2 2 2 2 2 2 1 2 2 2 3 4 4 5 6 4 4 4 4 4 3 5 6 5 5 5 6 4 3 3 2 2 2 2 3 4 4 5 4
1 1 1 1 1 1 1 2 2 2 2 2 2 2 2 3 3 4 5 6 4 4 4 3 3 5 5 5 5 5 5 3 2 2 2 3 3 3 3 3 4 5 5
1 1 1 1 1 1 1 2 1 1 2 2 2 2 3 2 2 3 4 4 4 3 3 4 4 4 4 3 5 5 4 3 3 3 4 4 3 3 2 2 3 3 3
2 1 0 0 0 1 1 1 2 2 2 2 2 3 2 2 2 2 2 2 2 2 2 1 1 2 2 2 2 3 3 3 4 4 4 3 3 2 3 3 3 2 2
1 1 0 0 1 1 0 1 1 2 2 3 3 3 2 3 4 4 2 2 2 2 1 0 0 0 1 1 1 1 2 2 3 4 4 4 3 3 3 2 2 2 3
1 0 0 0 0 0 0 1 2 1 2 2 3 3 3 4 5 4 3 3 2 2 1 1 1 1 2 2 2 2 2 3 3 3 4 4 4 4 3 2 2 3 4
1 1 0 0 0 0 0 0 1 2 3 3 3 3 3 4 4 3 2 1 1 2 2 2 2 2 2 2 2 3 3 3 3 3 3 3 3 3 3 3 3 3 4
1 0 1 1 1 1 1 1 0 1 2 3 3 4 3 3 2 2 1 1 1 0 1 2 2 2 2 2 3 3 3 2 2 3 3 3 3 3 3 3 4 4 4
1 0 0 1 1 1 1 0 0 0 1 2 2 3 4 3 2 2 1 0 1 1 2 2 3 3 3 3 3 3 3 3 3 3 3 3 3 3 3 3 3 4 4
0 0 0 0 0 0 0 0 0 0 1 1 2 2 2 2 2 2 1 1 1 2 2 2 3 3 3 3 3 3 3 3 3 3 3 3 3 3 3 4 3 3 4
0 0 1 1 0 1 1 1 1 1 1 1 2 2 1 1 1 2 2 2 2 2 2 3 3 3 3 2 3 3 4 3 3 3 3 3 3 3 3 3 3 3 3
0 0 0 0 0 0 0 0 0 0 1 1 1 1 1 1 1 2 2 3 3 3 3 3 2 3 3 3 3 3 3 4 3 3 3 3 3 3 2 3 3 3 3
0 0 0 1 0 0 1 1 0 0 1 1 1 1 1 1 1 2 2 3 3 3 2 2 2 2 2 2 2 2 3 3 4 4 4 3 3 3 3 3 3 3 3
0 0 0 0 0 0 0 0 0 0 1 1 1 1 1 1 1 2 2 2 2 2 2 2 2 3 4 3 2 2 2 3 3 3 4 3 3 3 3 2 3 3 3
1 0 0 0 0 0 0 1 1 1 1 1 1 1 1 1 1 2 2 2 2 2 3 3 2 3 3 3 3 3 3 3 3 3 2 2 3 3 3 3 3 3 3
1 1 0 0 0 1 1 1 1 1 1 1 1 1 1 1 2 2 2 2 3 3 3 2 3 4 4 4 4 4 3 3 3 3 2 2 3 3 3 3 4 3 3
Wind_Direction
176 177 177 181 190 190 191 197 197 199 197 196 190 197 204 205 198 193 206 208 214 228 230 224 235 229 223 216 210 208 212 210 236 255 236 230 222 235 238 227 226 222 221
174 175 179 180 183 191 198 199 192 195 200 200 189 194 201 201 196 197 209 212 212 221 231 228 240 236 229 224 217 220 219 214 219 242 240 219 225 230 231 226 223 216 215
164 170 180 188 191 198 198 193 191 191 196 197 190 200 208 207 204 209 213 216 216 221 224 227 235 227 235 231 226 227 225 220 216 224 238 223 223 217 217 221 208 221 215
164 172 184 192 193 193 191 190 193 191 193 202 205 210 211 209 207 209 211 218 227 233 232 232 231 225 232 233 230 228 222 219 215 219 232 230 219 200 189 204 227 225 232
165 177 192 189 182 180 183 186 190 194 203 206 209 217 218 214 216 210 210 220 228 240 247 246 242 237 234 231 231 225 217 217 214 216 225 223 215 196 206 199 218 227 243
169 181 179 172 175 184 193 188 185 196 202 199 207 212 218 229 229 211 208 220 227 235 244 252 253 246 245 240 238 229 216 214 215 214 219 223 224 215 207 202 199 204 237
169 171 174 177 183 188 193 195 197 206 205 211 217 216 227 238 231 221 216 214 225 233 238 243 250 254 249 255 251 243 233 228 216 210 219 225 221 210 197 205 210 216 228
166 169 170 177 187 187 186 196 205 208 210 219 224 226 232 242 231 222 216 216 226 234 236 236 239 252 252 247 244 248 249 246 232 223 226 231 223 208 202 206 209 216 229
153 165 173 177 189 195 201 208 211 211 223 226 226 229 235 247 236 227 214 225 237 245 242 237 234 242 247 232 223 231 242 251 246 228 231 235 229 219 197 185 188 197 227
168 171 174 178 189 205 210 213 209 208 231 240 242 240 236 242 239 227 210 219 238 248 250 246 241 244 248 227 217 223 236 244 236 238 246 251 241 226 200 200 202 207 220
165 142 161 187 205 216 202 201 201 202 219 249 265 278 262 252 247 230 215 214 228 241 248 253 253 246 246 239 229 227 234 233 230 228 239 249 247 234 219 217 216 214 218
144 155 165 189 223 229 203 205 200 191 203 233 257 286 289 277 260 239 228 225 222 226 241 249 252 250 252 249 238 234 229 219 219 221 232 241 241 242 240 232 225 227 229
141 166 188 192 213 259 214 204 211 204 205 224 241 262 286 297 287 259 240 241 233 225 241 245 251 248 249 248 243 235 216 208 211 223 234 241 240 241 241 241 234 231 242
156 167 168 184 258 313 264 209 205 211 221 229 242 258 274 284 284 279 254 247 254 249 253 248 242 240 239 245 246 231 221 216 216 230 241 247 243 232 230 231 232 226 232
154 152 144 151 188 231 280 259 239 240 230 229 241 243 256 280 276 266 248 244 243 242 236 229 257 290 286 281 271 247 230 220 224 232 235 241 239 232 234 232 228 223 225
146 149 165 145 181 218 32 360 9 337 321 279 261 256 268 260 278 269 250 244 238 213 170 211 244 254 257 263 263 260 250 244 240 237 236 238 239 236 235 225 219 221 227
151 190 210 193 248 248 255 304 337 352 4 356 335 311 287 287 289 283 271 271 234 163 167 225 242 254 260 263 258 255 258 260 255 248 244 241 240 240 236 233 228 228 232
96 170 211 225 238 233 228 238 238 320 341 347 347 334 325 318 309 304 262 100 32 108 239 252 253 258 262 264 261 258 261 263 250 244 246 245 241 239 238 237 232 230 233
102 296 270 246 233 224 211 207 229 266 303 320 335 344 349 350 350 348 48 53 264 268 259 260 262 263 263 261 262 260 255 250 246 241 243 246 243 238 239 240 237 230 232
127 261 315 142 247 220 148 166 223 238 289 309 329 332 347 14 12 356 351 306 283 282 279 275 277 277 274 273 268 261 255 251 247 242 241 242 241 235 231 234 234 234 235
87 312 350 22 310 261 222 208 203 206 255 294 307 316 326 338 318 313 314 305 288 283 280 278 278 279 279 279 273 267 262 254 246 243 245 246 243 236 232 232 232 235 238
103 323 328 314 255 244 221 198 183 202 254 283 306 322 310 311 309 309 307 302 296 287 282 279 281 280 278 276 274 271 268 265 256 245 242 239 235 234 233 236 235 234 234
188 325 336 346 335 358 25 43 64 175 267 276 294 312 322 321 316 314 313 314 315 312 305 293 289 292 292 285 276 265 265 271 271 261 243 231 224 221 221 227 233 237 236
208 224 227 1 6 23 19 1 315 266 262 270 287 294 297 302 311 319 320 318 318 318 315 305 293 294 306 309 303 298 296 295 287 270 253 238 230 225 220 222 227 230 235
177 173 150 163 257 295 282 267 264 273 278 280 291 303 311 312 316 326 329 325 324 323 325 324 320 314 314 317 319 315 316 314 310 301 267 240 235 232 223 223 230 234 236
174 176 186 209 228 239 243 258 268 267 268 277 288 299 308 311 314 322 323 321 321 320 320 324 330 331 329 324 323 326 323 320 316 306 276 247 239 237 232 228 228 230 231